Regional Weather Roundup
Issued by NWS Goodland, KS

Home | Current Version | Previous Version | Graphics & Text | Print | Product List | Glossary Off
Versions: 1 2 3 4 5 6 7 8 9 10 11 12 13 14 15 16 17 18 19 20 21 22 23 24 25 26 27 28 29 30 31 32 33 34 35 36 37 38 39 40 41 42 43 44 45 46 47 48 49 50

000
ASUS43 KGLD 021608
RWRGLD

GOODLAND FORECAST AREA HOURLY WEATHER ROUNDUP
NATIONAL WEATHER SERVICE GOODLAND KS
900 AM MST MON MAR 02 2015

...OFFICIAL OBSERVATIONS...

CITY           SKY/WX    TMP DP  RH WIND       PRES   REMARKS
GOODLAND KS    CLOUDY    27  22  81 S21G28    30.15F WCI  13
HILL CITY KS   CLOUDY    31  19  61 S16G22    30.30F WCI  20
IMPERIAL NEB     N/A     30  18  60 S20G30    30.14F WCI  17
MCCOOK NEB     CLOUDY    32  19  58 S20G25    30.23F
AKRON CO       CLOUDY    26  20  77 S21G29    30.01F WCI  12
BURLINGTON CO  CLOUDY    25  21  85 S23G30    30.09F WCI  10
LIMON CO       CLOUDY    22  19  89 S23       30.00F FOG     WCI   6
$$

...UNOFFICIAL OBSERVATIONS...

CITY           SKY/WX    TMP DP  RH WIND       PRES   REMARKS
COLBY KS       CLOUDY    28  25  86 S16       30.20F WCI  17
GOVE KS          N/A     29  32 100 MISG        N/A
LENORA KS        N/A     29  32 100 S20         N/A  WCI  16
NORTON KS      CLOUDY    30  18  59 SE16G24   30.26F WCI  19
SHARON SPRINGS   N/A     26  23  87 S20G26      N/A  WCI  12
TRIBUNE KS     CLOUDY    27  27 100 SE21      30.18  WCI  13
KIT CARSON CO    N/A     25  23  90 MISG        N/A
YUMA CO          N/A     26  20  77 N10G17      N/A  WCI  16
$$



USA.gov is the U.S. government's official web portal to all federal, state and local government web resources and services.